Location: Bonningues
(50.7927°N, 2.0150°E)
Time: 10:18:53
(UTC+00:00)

Cosmos 1833 - Pass Details

Date: 08 August 2020
Orbit: 836 x 863 km, 70.9° (Epoch: 20 September)

Event Time Altitude Azimuth Distance (km) Brightness Sun altitude
Exits shadow 23:28:30 55° 184° (S) 1,007 4.2 -23.1°
Maximum altitude 23:29:44 75° 116° (ESE) 872 4.1 -23.1°
Drops below altitude 10° 23:35:23 10° 32° (NNE) 2,473 7.3 -23.3°
Sets 23:37:51 0° 31° (NNE) 3,415 8.2 -23.3°
